Location: Marsån
(66.4167°N, 22.2833°E)
Time: 10:05:14
(UTC+00:00)

Cosmos 1862 - Pass Details

Date: 24 February 2024
Orbit: 514 x 528 km, 82.5° (Epoch: 15 April)

Event Time Altitude Azimuth Distance (km) Brightness Sun altitude
Rises 16:32:35 0° 153° (SSE) 2,643 6.6 -7.5°
Reaches altitude 10° 16:35:02 10° 138° (SE) 1,756 5.6 -7.8°
Maximum altitude 16:38:03 22° 86° (E) 1,167 4.4 -8.1°
Drops below altitude 10° 16:41:05 10° 35° (NE) 1,767 5.5 -8.4°
Sets 16:43:31 0° 20° (NNE) 2,651 6.6 -8.6°
